E27ASY-4 Weather Reports


time (UTC)temp
C
wind
direction
speed
KPH
gust
KPH
rain 1hr
cm
rain 24hr
cm
rain mn
cm
humidity
%
barometer
mb
20260504150414 27 0 0.0 0.0 0.00 0.00 0.00 99 1008.0
20260504141034 27 0 0.0 0.0 0.00 0.00 0.00 99 1008.0
20260504140512 27 0 0.0 0.0 0.00 0.00 0.00 99 1007.0
20260504130610 27 0 0.0 0.0 0.00 0.00 0.00 99 1006.0
20260504120146 28 0 0.0 0.0 0.00 0.00 0.00 99 1005.0
20260504110244 28 0 0.0 0.0 0.00 0.00 0.00 99 1004.0
20260504100342 29 0 0.0 0.0 0.00 0.00 0.00 99 1003.0
20260504081621 32 0 0.0 0.0 0.00 0.00 0.00 99 1004.0
20260504081059 31 0 0.0 0.0 0.00 0.00 0.00 99 1004.0
20260504080537 31 0 0.0 0.0 0.00 0.00 0.00 99 1004.0
20260504070113 28 0 0.0 0.0 0.00 0.00 0.00 99 1005.0
20260504060211 28 0 0.0 0.0 0.00 0.00 0.00 99 1006.0
20260504050309 41 0 0.0 0.0 0.00 0.00 0.00 37 1006.0
20260504045747 40 0 0.0 0.0 0.00 0.00 0.00 38 1006.0
20260504045225 40 0 0.0 0.0 0.00 0.00 0.00 38 1006.0
20260504044703 40 0 0.0 0.0 0.00 0.00 0.00 37 1007.0
20260504044141 41 0 0.0 0.0 0.00 0.00 0.00 38 1006.0
20260504043619 40 0 0.0 0.0 0.00 0.00 0.00 38 1007.0
20260504043057 40 0 0.0 0.0 0.00 0.00 0.00 39 1007.0
20260504042535 40 0 0.0 0.0 0.00 0.00 0.00 39 1007.0
20260504042013 40 0 0.0 0.0 0.00 0.00 0.00 40 1007.0
20260504041451 39 0 0.0 0.0 0.00 0.00 0.00 43 1007.0
20260504040929 38 0 0.0 0.0 0.00 0.00 0.00 46 1007.0
20260504040407 38 0 0.0 0.0 0.00 0.00 0.00 46 1007.0
20260504035845 38 0 0.0 0.0 0.00 0.00 0.00 44 1007.0
20260504035323 39 0 0.0 0.0 0.00 0.00 0.00 44 1007.0
20260504034800 39 0 0.0 0.0 0.00 0.00 0.00 44 1007.0
20260504034238 40 0 0.0 0.0 0.00 0.00 0.00 43 1007.0
20260504033716 40 0 0.0 0.0 0.00 0.00 0.00 43 1007.0
20260504033154 40 0 0.0 0.0 0.00 0.00 0.00 43 1007.0
20260504032632 40 0 0.0 0.0 0.00 0.00 0.00 41 1007.0
20260504032110 40 0 0.0 0.0 0.00 0.00 0.00 42 1007.0
20260504031549 40 0 0.0 0.0 0.00 0.00 0.00 43 1007.0
20260504031026 40 0 0.0 0.0 0.00 0.00 0.00 43 1008.0
20260504030504 39 0 0.0 0.0 0.00 0.00 0.00 43 1008.0
20260504025942 39 0 0.0 0.0 0.00 0.00 0.00 44 1008.0
20260504025420 39 0 0.0 0.0 0.00 0.00 0.00 46 1008.0
20260504024858 38 0 0.0 0.0 0.00 0.00 0.00 45 1008.0
20260504024336 38 0 0.0 0.0 0.00 0.00 0.00 47 1008.0
20260504023814 38 0 0.0 0.0 0.00 0.00 0.00 47 1008.0
20260504023252 38 0 0.0 0.0 0.00 0.00 0.00 49 1008.0
20260504022730 37 0 0.0 0.0 0.00 0.00 0.00 49 1008.0
20260504022208 37 0 0.0 0.0 0.00 0.00 0.00 50 1008.0
20260504021646 37 0 0.0 0.0 0.00 0.00 0.00 51 1008.0
20260504021124 37 0 0.0 0.0 0.00 0.00 0.00 52 1008.0
20260504020602 37 0 0.0 0.0 0.00 0.00 0.00 53 1008.0
20260504020040 36 0 0.0 0.0 0.00 0.00 0.00 54 1008.0
20260504015518 36 0 0.0 0.0 0.00 0.00 0.00 57 1008.0
20260504014956 36 0 0.0 0.0 0.00 0.00 0.00 57 1008.0
20260504014434 36 0 0.0 0.0 0.00 0.00 0.00 58 1008.0
20260504013912 36 0 0.0 0.0 0.00 0.00 0.00 59 1008.0
20260504013350 35 0 0.0 0.0 0.00 0.00 0.00 60 1008.0
20260504012828 35 0 0.0 0.0 0.00 0.00 0.00 61 1008.0
20260504012306 35 0 0.0 0.0 0.00 0.00 0.00 63 1008.0
20260504011744 34 0 0.0 0.0 0.00 0.00 0.00 64 1008.0
20260504011222 34 0 0.0 0.0 0.00 0.00 0.00 64 1008.0
20260504010700 33 0 0.0 0.0 0.00 0.00 0.00 66 1007.0
20260504010138 33 0 0.0 0.0 0.00 0.00 0.00 67 1007.0
20260504005616 33 0 0.0 0.0 0.00 0.00 0.00 69 1007.0
20260504005054 33 0 0.0 0.0 0.00 0.00 0.00 70 1007.0
20260504004532 32 0 0.0 0.0 0.00 0.00 0.00 71 1007.0
20260504004010 32 0 0.0 0.0 0.00 0.00 0.00 72 1007.0
20260504003448 31 0 0.0 0.0 0.00 0.00 0.00 73 1007.0
20260504002932 31 0 0.0 0.0 0.00 0.00 0.00 75 1007.0
20260504002404 31 0 0.0 0.0 0.00 0.00 0.00 75 1007.0
20260504001842 31 0 0.0 0.0 0.00 0.00 0.00 75 1007.0
20260504001320 31 0 0.0 0.0 0.00 0.00 0.00 76 1007.0
20260504000758 30 0 0.0 0.0 0.00 0.00 0.00 76 1007.0
20260504000236 30 0 0.0 0.0 0.00 0.00 0.00 77 1007.0
20260503235714 30 0 0.0 0.0 0.00 0.00 0.00 78 1007.0
20260503235152 29 0 0.0 0.0 0.00 0.00 0.00 79 1007.0
20260503234630 29 0 0.0 0.0 0.00 0.00 0.00 80 1007.0
20260503234108 29 0 0.0 0.0 0.00 0.00 0.00 80 1007.0
20260503233547 28 0 0.0 0.0 0.00 0.00 0.00 80 1007.0
20260503233024 28 0 0.0 0.0 0.00 0.00 0.00 80 1006.0
20260503232502 28 0 0.0 0.0 0.00 0.00 0.00 80 1006.0
20260503231940 28 0 0.0 0.0 0.00 0.00 0.00 80 1006.0
20260503231418 28 0 0.0 0.0 0.00 0.00 0.00 80 1006.0
20260503230856 28 0 0.0 0.0 0.00 0.00 0.00 80 1006.0
20260503230334 28 0 0.0 0.0 0.00 0.00 0.00 80 1006.0
20260503225812 28 0 0.0 0.0 0.00 0.00 0.00 80 1006.0
20260503225250 28 0 0.0 0.0 0.00 0.00 0.00 79 1006.0
20260503224728 28 0 0.0 0.0 0.00 0.00 0.00 79 1006.0
20260503224206 28 0 0.0 0.0 0.00 0.00 0.00 79 1006.0
20260503223644 28 0 0.0 0.0 0.00 0.00 0.00 78 1006.0
20260503223122 28 0 0.0 0.0 0.00 0.00 0.00 78 1006.0
20260503222600 28 0 0.0 0.0 0.00 0.00 0.00 78 1006.0
20260503222038 29 0 0.0 0.0 0.00 0.00 0.00 77 1006.0
20260503221516 29 0 0.0 0.0 0.00 0.00 0.00 77 1006.0
20260503220954 29 0 0.0 0.0 0.00 0.00 0.00 76 1006.0
20260503220432 29 0 0.0 0.0 0.00 0.00 0.00 76 1006.0
20260503215910 29 0 0.0 0.0 0.00 0.00 0.00 76 1006.0
20260503215348 29 0 0.0 0.0 0.00 0.00 0.00 76 1006.0
20260503214826 29 0 0.0 0.0 0.00 0.00 0.00 76 1005.0
20260503214304 29 0 0.0 0.0 0.00 0.00 0.00 76 1006.0
20260503213742 29 0 0.0 0.0 0.00 0.00 0.00 76 1006.0
20260503213220 29 0 0.0 0.0 0.00 0.00 0.00 76 1005.0
20260503212658 29 0 0.0 0.0 0.00 0.00 0.00 75 1005.0
20260503212136 29 0 0.0 0.0 0.00 0.00 0.00 75 1005.0
20260503211614 29 0 0.0 0.0 0.00 0.00 0.00 75 1005.0
20260503211052 29 0 0.0 0.0 0.00 0.00 0.00 75 1005.0
20260503210530 29 0 0.0 0.0 0.00 0.00 0.00 75 1005.0
20260503210008 29 0 0.0 0.0 0.00 0.00 0.00 76 1005.0
20260503205446 29 0 0.0 0.0 0.00 0.00 0.00 75 1005.0
20260503204924 29 0 0.0 0.0 0.00 0.00 0.00 75 1005.0
20260503204402 29 0 0.0 0.0 0.00 0.00 0.00 75 1005.0
20260503203840 29 0 0.0 0.0 0.00 0.00 0.00 75 1005.0
20260503203318 29 0 0.0 0.0 0.00 0.00 0.00 74 1005.0
20260503202756 29 0 0.0 0.0 0.00 0.00 0.00 74 1005.0
20260503202234 29 0 0.0 0.0 0.00 0.00 0.00 74 1005.0
20260503201712 29 0 0.0 0.0 0.00 0.00 0.00 74 1005.0
20260503201150 29 0 0.0 0.0 0.00 0.00 0.00 74 1005.0
20260503200628 29 0 0.0 0.0 0.00 0.00 0.00 74 1005.0
20260503200106 29 0 0.0 0.0 0.00 0.00 0.00 74 1005.0
20260503195544 29 0 0.0 0.0 0.00 0.00 0.00 74 1005.0
20260503195022 29 0 0.0 0.0 0.00 0.00 0.00 74 1005.0
20260503194500 29 0 0.0 0.0 0.00 0.00 0.00 74 1005.0
20260503193938 29 0 0.0 0.0 0.00 0.00 0.00 74 1005.0
20260503193416 29 0 0.0 0.0 0.00 0.00 0.00 74 1005.0
20260503192854 29 0 0.0 0.0 0.00 0.00 0.00 74 1005.0
20260503192332 29 0 0.0 0.0 0.00 0.00 0.00 74 1005.0
20260503191810 30 0 0.0 0.0 0.00 0.00 0.00 73 1005.0
20260503191248 30 0 0.0 0.0 0.00 0.00 0.00 74 1005.0
20260503190726 30 0 0.0 0.0 0.00 0.00 0.00 74 1005.0
20260503190204 30 0 0.0 0.0 0.00 0.00 0.00 74 1005.0
20260503185642 30 0 0.0 0.0 0.00 0.00 0.00 74 1005.0
20260503185120 30 0 0.0 0.0 0.00 0.00 0.00 74 1005.0
20260503184558 30 0 0.0 0.0 0.00 0.00 0.00 75 1005.0
20260503184036 30 0 0.0 0.0 0.00 0.00 0.00 75 1005.0
20260503183514 30 0 0.0 0.0 0.00 0.00 0.00 75 1006.0
20260503182952 30 0 0.0 0.0 0.00 0.00 0.00 76 1006.0
20260503182431 30 0 0.0 0.0 0.00 0.00 0.00 75 1006.0
20260503181908 30 0 0.0 0.0 0.00 0.00 0.00 75 1006.0
20260503181346 30 0 0.0 0.0 0.00 0.00 0.00 75 1006.0
20260503180824 30 0 0.0 0.0 0.00 0.00 0.00 74 1006.0
20260503180303 30 0 0.0 0.0 0.00 0.00 0.00 74 1006.0
20260503175740 30 0 0.0 0.0 0.00 0.00 0.00 74 1006.0
20260503175218 30 0 0.0 0.0 0.00 0.00 0.00 74 1006.0
20260503174656 30 0 0.0 0.0 0.00 0.00 0.00 74 1006.0
20260503174134 30 0 0.0 0.0 0.00 0.00 0.00 73 1006.0
20260503173612 31 0 0.0 0.0 0.00 0.00 0.00 72 1006.0
20260503173050 31 0 0.0 0.0 0.00 0.00 0.00 72 1006.0
20260503172528 31 0 0.0 0.0 0.00 0.00 0.00 71 1006.0
20260503172006 31 0 0.0 0.0 0.00 0.00 0.00 72 1006.0
20260503171444 31 0 0.0 0.0 0.00 0.00 0.00 71 1006.0
20260503170922 31 0 0.0 0.0 0.00 0.00 0.00 71 1006.0
20260503170400 31 0 0.0 0.0 0.00 0.00 0.00 71 1006.0